Weather History for KHVR - October, 2013

Change the Weather History Date:

Thursday, October 3, 2013

  Actual Average Record
Temperature  
Mean Temperature 39 °F 50 °F  
Max Temperature 46 °F 64 °F 91 °F (1943)
Min Temperature 31 °F 35 °F 13 °F (1999)
Degree Days  
Heating Degree Days 26 15  
Month to date heating degree days 58 45  
Since 1 July heating degree days 226 402  
Cooling Degree Days 0 0  
Month to date cooling degree days 0 0  
Year to date cooling degree days 445 386  
Moisture  
Dew Point 30 °F    
Average Humidity 68    
Maximum Humidity 82    
Minimum Humidity 53    
Precipitation  
Precipitation 0.00 in 0.02 in 0.89 in (1914)
Month to date precipitation 0.00 0.08  
Year to date precipitation 17.15 9.87  
Snow  
Snow 0.00 in 0.00 in 7.60 in (1916)
Month to date snowfall 0.0 0.1  
Since 1 July snowfall 0.0 0.4  
Since 1 September snowfall 0.0 0.4  
Snow Depth 0.00 in    
Sea Level Pressure  
Sea Level Pressure 30.30 in    
Wind  
Wind Speed 7 mph (NE)    
Max Wind Speed 15 mph    
Max Gust Speed 18 mph    
Visibility 10 miles    
Events      
T = Trace of Precipitation, MM = Missing Value Source: NWS Daily Summary

Daily Weather History Graph

Daily Weather History Graph

Search for Another Location

Airport or City:

Trip Planner

Search our weather history database for the weather conditions in past years. The results will help you decide how hot, cold, wet, or windy it might be!

Date:

Astronomy

Oct. 03, 2013 Rise Set
Actual Time 7:21 AM MDT 6:53 PM MDT
Civil Twilight 6:50 AM MDT 7:24 PM MDT
Nautical Twilight 6:14 AM MDT 8:00 PM MDT
Astronomical Twilight 5:37 AM MDT 8:37 PM MDT
Moon 5:54 AM MDT (10/3) 6:05 PM MDT (10/3)
Length of Visible Light 12h 33m
Length of Day
11h 31m
Waning Crescent, 2% of the Moon is Illuminated
Oct 3
Waning Crescent
Oct 4
New
Oct 11
First Quarter
Oct 18
Full
Oct 26
Last Quarter

Hourly Weather History & Observations

Time (MDT) Temp. Windchill Dew Point Humidity Pressure Visibility Wind Dir Wind Speed Gust Speed Precip Events Conditions
12:53 AM 37.0 °F 31.0 °F 30.9 °F 79% 30.13 in 10.0 mi East 8.1 mph - N/A   Clear
1:53 AM 35.1 °F 31.0 °F 30.0 °F 82% 30.14 in 10.0 mi ENE 4.6 mph - N/A   Clear
2:53 AM 36.0 °F 31.1 °F 30.9 °F 82% 30.15 in 10.0 mi NE 5.8 mph - N/A   Clear
3:53 AM 36.0 °F 29.6 °F 30.9 °F 82% 30.15 in 10.0 mi NE 8.1 mph - N/A   Clear
4:53 AM 35.1 °F 30.1 °F 30.0 °F 82% 30.18 in 10.0 mi NE 5.8 mph - N/A   Clear
5:34 AM 35.6 °F 30.7 °F 30.2 °F 81% 30.15 in 10.0 mi NNE 5.8 mph - N/A   Mostly Cloudy
5:53 AM 35.1 °F 32.2 °F 30.0 °F 82% 30.20 in 10.0 mi NE 3.5 mph - N/A   Mostly Cloudy
6:53 AM 37.0 °F 30.4 °F 30.9 °F 79% 30.22 in 10.0 mi NNE 9.2 mph - N/A   Overcast
7:53 AM 37.0 °F 31.6 °F 32.0 °F 82% 30.24 in 10.0 mi NNE 6.9 mph - N/A   Overcast
8:53 AM 37.9 °F 32.1 °F 32.0 °F 79% 30.26 in 10.0 mi NE 8.1 mph - N/A   Overcast
9:53 AM 37.0 °F 28.9 °F 30.9 °F 79% 30.30 in 10.0 mi NNE 12.7 mph - N/A   Overcast
10:53 AM 39.0 °F 32.3 °F 32.0 °F 76% 30.31 in 10.0 mi NE 10.4 mph - N/A   Overcast
11:00 AM 39.2 °F 31.6 °F 30.2 °F 70% 30.26 in 10.0 mi NE 12.7 mph - N/A   Overcast
11:53 AM 41.0 °F 34.3 °F 32.0 °F 70% 30.32 in 10.0 mi ENE 11.5 mph - N/A   Overcast
12:53 PM 42.1 °F 36.1 °F 32.0 °F 67% 30.32 in 10.0 mi ENE 10.4 mph - N/A   Overcast
1:53 PM 44.1 °F 38.6 °F 32.0 °F 63% 30.32 in 10.0 mi NE 10.4 mph - N/A   Overcast
2:00 PM 44.6 °F 39.2 °F 30.2 °F 57% 30.26 in 10.0 mi NNE 10.4 mph - N/A   Overcast
2:53 PM 45.0 °F 41.2 °F 30.9 °F 58% 30.32 in 10.0 mi NE 6.9 mph - N/A   Mostly Cloudy
3:53 PM 45.0 °F 41.2 °F 30.9 °F 58% 30.34 in 10.0 mi SE 6.9 mph - N/A   Overcast
4:53 PM 45.0 °F 42.6 °F 30.9 °F 58% 30.36 in 10.0 mi SSE 4.6 mph - N/A   Overcast
5:53 PM 45.0 °F - 30.9 °F 58% 30.38 in 10.0 mi Calm Calm - N/A   Overcast
6:53 PM 44.1 °F 38.1 °F 28.0 °F 53% 30.38 in 10.0 mi North 11.5 mph - N/A   Clear
7:53 PM 41.0 °F 35.8 °F 28.0 °F 60% 30.41 in 10.0 mi North 8.1 mph - N/A   Clear
8:53 PM 41.0 °F 36.4 °F 27.0 °F 57% 30.44 in 10.0 mi NE 6.9 mph - N/A   Clear
10:53 PM 34.0 °F - 28.0 °F 79% 30.48 in 10.0 mi Calm Calm - N/A   Clear
11:53 PM 35.1 °F - 28.0 °F 76% 30.48 in 10.0 mi Calm Calm - N/A   Clear